Location: Gouzens
(43.1855°N, 1.1888°E)
Time: 03:27:31
(UTC+00:00)

Daily predictions for brighter satellites

Satellite Brightness Start Highest point End
(mag) Time Altitude Azimuth Time Altitude Azimuth Time Altitude Azimuth
Thor Agena Rocket 3.4 00:00:01 10° NNE 00:04:53 78° ENE 00:04:53 78° ENE
Cosmos 1707 Rocket 4.0 00:01:47 10° N 00:05:18 58° N 00:05:18 58° N
Okean 1 4.3 00:02:30 10° N 00:05:27 46° N 00:05:27 46° N
Cosmos 494 Rocket 4.0 00:13:18 70° ENE 00:13:18 70° ENE 00:18:04 10° NNE
Cosmos 2285 Rocket 3.8 00:09:06 10° NNW 00:15:25 80° WSW 00:16:07 70° SSW
Cosmos 2333 Rocket 2.0 00:10:18 10° NNW 00:15:58 78° WSW 00:16:01 77° WSW
Meteor 1-25 Rocket 4.3 00:18:08 59° WSW 00:18:36 61° WNW 00:24:09 10° N
ATLAS 5 CENTAUR R/B 3.3 00:18:51 10° NNW 00:24:06 42° NE 00:28:59 16° ESE
Cosmos 2360 Rocket 3.3 00:20:55 10° NW 00:25:09 30° W 00:25:09 30° W
Cosmos 1452 Rocket 3.8 00:22:17 10° NNW 00:26:57 54° W 00:26:57 54° W
PSLV R/B 3.9 00:23:47 10° N 00:28:18 70° NW 00:28:18 70° NW
Cosmos 1666 4.0 00:29:45 37° NE 00:29:45 37° NE 00:32:21 10° NNE
Meteor 1-14 Rocket 4.0 00:30:32 75° SE 00:30:50 78° E 00:36:25 10° NNE
Meteor 1-19 Rocket 4.2 00:25:56 10° NNW 00:31:36 67° W 00:31:46 67° WSW
Cosmos 2322 3.8 00:26:45 10° NNW 00:32:15 60° WSW 00:32:15 60° WSW
APEX 4.2 00:40:59 63° ESE 00:41:08 64° ESE 00:47:15 10° NNE
Resurs 1-4 Rocket 3.4 00:38:51 10° NE 00:43:24 28° E 00:44:08 27° ESE
Cosmos 2297 Rocket 2.7 00:46:29 43° ESE 00:46:51 43° ESE 00:52:11 10° NE
NOSS 3-1 (C) 4.1 00:44:08 10° NW 00:51:44 62° WSW 00:54:01 48° S
Cosmos 2237 Rocket 2.8 00:46:45 10° NNW 00:52:19 53° ENE 00:54:34 33° ESE
Meteor 2-17 Rocket 4.3 00:54:55 65° S 00:55:53 88° W 01:01:59 10° N
Cosmos 2227 Rocket 2.9 00:56:52 38° ESE 00:57:27 40° ESE 01:02:41 10° NE
Cosmos 1709 Rocket 4.0 00:58:20 56° SSE 00:59:41 75° E 01:06:02 10° N
Cosmos 1470 Rocket 4.0 01:00:37 52° NW 01:00:37 52° NW 01:04:21 10° N
Cosmos 1110 Rocket 4.2 00:55:43 10° NNW 01:00:40 55° W 01:00:40 55° W
USA 229 DEB 3.8 00:55:08 10° NW 01:02:32 78° WSW 01:05:35 41° SSE
USA 229 3.8 00:55:14 10° NW 01:02:38 79° WSW 01:05:44 40° SSE
Meteor 2-4 Rocket 3.8 00:58:44 10° NNW 01:04:37 64° W 01:05:16 60° SW
EO 1 Del DPAF 4.3 01:01:02 10° N 01:03:46 39° NNW 01:03:46 39° NNW
Cosmos 1933 Rocket 3.7 01:07:30 71° NW 01:07:30 71° NW 01:11:41 10° N
Cosmos 1745 Rocket 4.2 01:06:16 50° WSW 01:07:25 57° WNW 01:13:35 10° N
NOSS 0 Rocket 3.8 01:04:02 10° NNW 01:10:18 77° WSW 01:11:33 58° S
YAOGAN 11 4.1 01:10:25 83° WNW 01:10:25 83° WNW 01:14:53 10° NNW
MOZ.5/SAFIR/RUBIN 5/SL-8 3.7 01:11:26 79° SE 01:11:42 84° ENE 01:16:28 10° NNW
Cosmos 1331 Rocket 4.4 01:07:07 10° NNW 01:11:47 48° W 01:11:47 48° W
Lacrosse 5 2.7 01:12:35 37° ESE 01:12:35 37° ESE 01:16:53 10° ENE
COSMOS 2428 3.3 01:07:47 10° NW 01:12:40 39° W 01:12:40 39° W
ADEOS Rocket 3.9 01:11:00 19° SE 01:14:30 39° ENE 01:19:34 10° N
SL-16 R/B 3.9 01:10:03 10° N 01:15:01 30° NE 01:19:58 10° ESE
SL-16 R/B 2.9 01:13:31 29° SE 01:16:36 59° ENE 01:22:39 10° N
COSMOS 2455 4.0 01:14:39 24° W 01:17:13 34° NW 01:22:42 10° NNE
Cosmos 1544 3.9 01:18:15 48° NE 01:18:15 48° NE 01:21:08 10° NNE
CZ-2D R/B 2.5 01:12:19 10° NNE 01:17:36 55° E 01:18:42 47° SE
Helios 1A 3.1 01:18:25 72° NW 01:18:25 72° NW 01:22:18 10° NNW
Okean 1-7 3.0 01:14:12 10° N 01:18:05 73° NNW 01:18:05 73° NNW
Meteor 1-5 Rocket 4.5 01:18:51 49° WSW 01:19:43 53° WNW 01:25:22 10° N
Cosmos 909 Rocket 4.3 01:18:54 47° S 01:20:35 63° ESE 01:27:49 10° NE
Okean 3 3.8 01:18:21 10° N 01:22:37 59° E 01:22:53 58° E
NOSS 3-1 (A) 4.1 01:15:18 10° NW 01:22:55 64° WSW 01:26:38 36° S
Cosmos 2219 Rocket 3.5 01:18:54 10° NW 01:22:36 25° W 01:22:36 25° W
ARGOS Delta rocket 3.9 01:20:53 10° N 01:25:35 57° WNW 01:25:47 56° W
ADEOS II 3.4 01:21:34 10° NNE 01:26:13 31° E 01:28:02 25° SE
Cosmos 1340 Rocket 3.5 01:27:12 45° NW 01:27:12 45° NW 01:30:26 10° N
MINOTAUR IV R/B 4.4 01:22:07 10° NNW 01:26:42 89° WSW 01:26:47 86° S
CZ-4 R/B 4.1 01:25:33 10° N 01:30:25 57° WNW 01:31:02 52° WSW
Cosmos 1743 3.1 01:33:42 56° E 01:33:42 56° E 01:37:20 10° NNE
Cosmos 1269 Rocket 4.2 01:34:36 51° WSW 01:35:31 59° WNW 01:40:45 10° NNE
ASTEX 1 3.3 01:38:33 60° WSW 01:38:56 62° W 01:43:48 10° NNW
AQUA 4.2 01:36:11 10° NNE 01:40:53 56° E 01:41:55 46° SE
Cosmos 2219 3.2 01:42:03 52° SW 01:43:32 81° WNW 01:49:20 10° NNE
Helios 1B rocket 2.6 01:41:03 10° NNE 01:45:07 59° E 01:45:31 56° SE
Cosmos 2074 Rocket 4.2 01:43:18 35° SSE 01:45:58 65° E 01:52:07 10° NNE
Cosmos 1703 Rocket 4.3 01:43:15 10° NNW 01:46:53 38° WNW 01:46:53 38° WNW
Cosmos 1066 Rocket 4.3 01:42:09 10° NNW 01:47:59 69° W 01:49:38 47° SSW
Meteor 1-11 Rocket 4.0 01:54:11 43° WSW 01:55:33 53° WNW 02:00:58 10° N
Cosmos 2084 Rocket 3.5 01:51:23 10° NW 01:55:38 79° NE 01:57:52 28° SE
Cosmos 2181 Rocket 4.1 01:53:12 10° NNW 01:59:28 62° W 02:01:43 39° SSW
Cosmos 1992 Rocket 3.9 01:57:04 10° NNW 02:02:20 84° WSW 02:04:36 35° SSE
Cosmos 2082 3.8 02:02:39 40° S 02:04:46 72° ESE 02:10:30 10° NNE
Cosmos 1733 Rocket 3.3 02:05:38 43° SSE 02:06:57 67° E 02:11:23 10° NNE
ATLAS 5 CENTAUR R/B 2.8 02:03:23 10° NW 02:08:52 42° WSW 02:10:22 36° SSW
Cosmos 1842 3.7 02:07:44 10° N 02:11:32 56° E 02:13:03 32° SE
Cosmos 1980 4.3 02:06:34 10° NW 02:11:38 34° WSW 02:12:06 34° WSW
CZ-4C R/B 4.1 02:05:50 10° NNW 02:12:39 45° NE 02:20:31 10° ESE
Cosmos 1536 4.1 02:15:44 26° WNW 02:15:52 26° WNW 02:19:16 10° NNW
IDEFIX/ARIANE 42P 3.1 02:13:55 10° NNE 02:18:58 51° E 02:22:01 23° SSE
USA 215 4.5 02:13:58 10° ENE 02:19:32 29° SE 02:23:07 18° S
Resurs 1-4 Rocket 2.8 02:18:22 10° N 02:23:17 39° WNW 02:25:13 29° WSW
CBERS-1 4.3 02:21:47 10° NNE 02:26:54 63° ESE 02:29:52 25° S
Cosmos 2251 Rocket 3.5 02:27:52 35° SW 02:30:05 71° WNW 02:35:23 10° NNE
Cosmos 2297 Rocket 3.4 02:28:17 21° W 02:31:01 30° NW 02:36:00 10° N
Meteor 1-29 2.8 02:29:22 10° N 02:32:40 72° WNW 02:33:11 57° SW
Cosmos 2237 Rocket 3.3 02:31:35 10° NW 02:35:58 23° W 02:36:20 23° WSW
NPP 4.4 02:31:24 10° N 02:36:22 39° WNW 02:38:43 26° WSW
Cosmos 1238 Rocket 2.1 02:40:33 49° S 02:41:16 83° E 02:44:33 10° N
Okean 2 3.5 02:37:07 10° N 02:41:18 76° E 02:44:23 18° SSE
Cosmos 2227 Rocket 3.3 02:38:41 21° WSW 02:41:33 33° NW 02:46:39 10° N
Nadezhda 3 Rocket 4.0 02:35:28 10° N 02:41:51 79° W 02:47:13 15° S
Cosmos 2221 Rocket 4.1 02:41:41 10° NNW 02:45:59 43° W 02:47:39 30° SW
BREEZE-M DEB (TANK) 4.0 02:38:45 20° SW 02:46:41 76° SSE 02:50:22 10° ENE
CZ-2C R/B 4.4 02:45:27 10° NE 02:48:59 22° E 02:52:32 10° SE
CZ-4C R/B 3.6 02:46:34 10° SSE 02:50:30 72° ENE 02:54:44 10° N
Meteor 2-9 Rocket 4.2 02:51:22 25° SSW 02:54:19 57° WNW 02:59:35 10° N
Lacrosse 5 2.6 02:51:46 19° W 02:55:08 45° NW 03:00:01 10° NE
CZ-2D R/B 3.7 02:53:13 10° NNW 02:57:15 22° WNW 03:00:01 15° W
Cosmos 1140 Rocket 3.5 02:54:33 21° SSW 02:58:09 81° ESE 03:03:25 10° NNE
SL-16 R/B 2.5 02:53:57 10° NW 02:59:17 44° WSW 03:04:02 13° S
ADEOS Rocket 3.7 02:57:57 22° SW 03:00:09 29° W 03:04:53 10° NW
SL-16 R/B 3.7 02:58:37 20° WSW 03:00:35 23° W 03:05:22 10° NW
ARIANE 5 R/B 2.9 02:59:29 10° NNE 03:04:37 63° ESE 03:09:42 10° S
ADEOS II 3.0 03:01:10 10° N 03:05:54 35° WNW 03:08:57 19° WSW
CZ-4B R/B 4.0 03:02:18 10° NNE 03:07:06 54° E 03:11:45 10° S
IRS-1C 4.2 03:03:24 10° NNE 03:08:46 85° ESE 03:13:33 13° SSW
Cosmos 1674 Rocket 4.0 03:04:44 10° NNW 03:08:54 42° W 03:11:40 19° SSW
ATLAS CENTAUR R/B 2.3 03:06:59 15° S 03:09:39 35° ESE 03:13:14 10° NE
NOSS 3-3 (A) 4.0 03:05:31 19° SSW 03:09:46 75° ESE 03:16:11 10° NE
Cosmos 2263 Rocket 2.2 03:05:29 18° SSW 03:09:49 86° ESE 03:15:33 10° NNE
NOSS 3-3 (C) 4.0 03:05:38 19° SSW 03:09:52 74° ESE 03:16:16 10° NE
Meteor 1-28 Rocket 4.3 03:12:37 22° WSW 03:13:42 25° W 03:16:51 10° NW
Cosmos 1461 3.1 03:10:48 21° SW 03:13:51 78° NW 03:18:20 10° NNE
Cosmos 1975 3.9 03:13:47 20° WSW 03:15:44 30° WNW 03:19:23 10° NNW
IRS-1D 4.3 03:12:59 10° N 03:17:28 35° WNW 03:20:43 17° SW
Cosmos 1805 4.3 03:17:36 10° SSE 03:21:18 44° E 03:25:01 10° NNE
Cosmos 1975 Rocket 3.4 03:22:00 10° N 03:26:25 70° E 03:30:46 10° SSE
In-Cosmos 22 4.3 03:21:18 10° NNW 03:27:02 65° W 03:32:41 10° S
KORONAS-FOTON 3.8 03:25:36 10° N 03:29:32 88° E 03:33:27 10° S
GEOS 3 Rocket 3.6 03:27:06 10° SSE 03:32:26 69° SW 03:37:45 10° NW
Cosmos 676 Rocket 4.2 03:27:15 10° SSW 03:32:33 79° ESE 03:37:55 10° NNE
SL-8 R/B 3.7 03:30:01 15° WSW 03:34:02 85° SSE 03:38:53 10° ENE
Cosmos 1707 3.6 03:31:58 10° NNW 03:35:23 31° W 03:38:31 11° SSW
Cosmos 1908 Rocket 4.3 03:33:16 14° SW 03:36:31 36° WNW 03:40:31 10° N
Cosmos 44 3.4 03:32:00 10° NW 03:37:16 86° WSW 03:42:12 10° SSE
Cosmos 1943 3.2 03:34:25 10° NNW 03:40:09 83° WSW 03:45:51 10° SSE
PAYLOAD A 4.3 03:36:19 10° NNE 03:41:48 81° ESE 03:47:08 10° S
Cosmos 407 Rocket 4.2 03:37:29 13° SW 03:41:55 40° WNW 03:46:52 10° N
Meteor 1-12 Rocket 4.2 03:37:16 10° SSW 03:42:54 83° W 03:48:39 10° N
MOS 1 Rocket 4.4 03:40:46 10° SSE 03:45:39 54° ENE 03:50:49 10° N
Cosmos 1959 Rocket 4.5 03:40:31 10° SSW 03:46:35 70° W 03:52:46 10° N
USA 281 3.9 03:40:56 10° SE 03:47:21 60° ENE 03:53:48 10° NNW
BREEZE-M DEB (TANK) 2.3 03:44:36 10° WNW 03:47:37 87° NNE 03:50:56 10° ESE
Cosmos 1766 3.8 03:44:33 10° S 03:48:22 60° E 03:52:13 10° NNE
SL-8 Rocket 4.3 03:46:33 10° SSW 03:52:31 51° WNW 03:58:32 10° N
Cosmos 1733 3.2 03:50:01 10° S 03:53:51 86° W 03:57:43 10° N
Cosmos 2366 rocket 4.2 03:48:11 10° SSW 03:54:28 61° W 04:00:46 10° N
IDEFIX/ARIANE 42P 4.0 03:54:18 10° NNW 03:58:11 22° WNW 04:02:03 10° WSW
Cosmos 1763 Rocket 4.0 03:54:21 10° NNW 03:59:40 69° ENE 04:04:56 10° SSE
Cosmos 1484 Rocket 4.0 03:57:35 10° NNE 04:01:23 44° E 04:05:11 10° S
Meteor 2-5 Rocket 4.5 03:55:38 10° N 04:01:32 62° ENE 04:07:18 10° SSE
CZ-4C R/B 3.2 03:54:16 10° NW 04:01:33 54° WSW 04:09:46 10° SSE
Cosmos 2344 3.9 03:55:02 10° WSW 04:02:20 55° NW 04:10:04 10° NNE
SL-24 R/B - RUBIN 2 3.8 03:57:19 10° NW 04:02:21 86° NE 04:06:51 10° SE
USA 215 3.4 03:56:23 10° NE 04:02:57 82° NW 04:09:29 10° SW
Cosmos 1400 Rocket 2.8 04:00:42 10° SSW 04:04:30 59° WNW 04:08:22 10° N
Cosmos 1025 Rocket 3.0 04:00:52 10° N 04:05:11 79° W 04:09:30 10° S
